Weather History for Corpus Christi, TX

Change the Weather History Date:

Tuesday, December 25, 2012

  Actual Average Record
Temperature  
Mean Temperature 63 °F 57 °F  
Max Temperature 83 °F 67 °F 89 °F (1964)
Min Temperature 42 °F 47 °F 14 °F (1983)
Degree Days  
Heating Degree Days 2 9  
Month to date heating degree days 76 195  
Since 1 July heating degree days 115 296  
Cooling Degree Days 0 1  
Month to date cooling degree days 143 43  
Year to date cooling degree days 4514 3518  
Growing Degree Days 12 (Base 50)    
Moisture  
Dew Point 46 °F    
Average Humidity 50    
Maximum Humidity 90    
Minimum Humidity 10    
Precipitation  
Precipitation 0.00 in 0.07 in 3.97 in (1938)
Month to date precipitation 0.02 1.44  
Year to date precipitation 18.81 31.37  
Snow  
Snow 0.00 in - - ()
Month to date snowfall 0.0  
Since 1 July snowfall 0.0  
Snow Depth 0.00 in    
Sea Level Pressure  
Sea Level Pressure 29.77 in    
Wind  
Wind Speed 22 mph (West)    
Max Wind Speed 38 mph    
Max Gust Speed 45 mph    
Visibility 10 miles    
Events      
T = Trace of Precipitation, MM = Missing Value Source: NWS Daily Summary

Daily Weather History Graph

Daily Weather History Graph

Search for Another Location

Airport:

Trip Planner

Search our weather history database for the weather conditions in past years. The results will help you decide how hot, cold, wet, or windy it might be!

Date:

Astronomy

Dec. 25, 2012 Rise Set
Actual Time 7:18 AM CST 5:42 PM CST
Civil Twilight 6:53 AM CST 6:07 PM CST
Nautical Twilight 6:23 AM CST 6:37 PM CST
Astronomical Twilight 5:55 AM CST 7:05 PM CST
Moon 3:48 PM CST (12/25) 4:56 AM CST (12/25)
Length of Visible Light 11h 14m
Length of Day
10h 23m
Waxing Gibbous, 94% of the Moon is Illuminated
Dec 25
Waxing Gibbous
Dec 28
Full
Jan 4
Last Quarter
Jan 11
New
Jan 18
First Quarter

Hourly Weather History & Observations

Time (CST) Temp. Windchill Dew Point Humidity Pressure Visibility Wind Dir Wind Speed Gust Speed Precip Events Conditions
12:51 AM 72.0 °F - 66.9 °F 84% 29.67 in 10.0 mi SSE 16.1 mph - N/A   Scattered Clouds
1:20 AM 71.6 °F - 66.2 °F 83% 29.67 in 10.0 mi SSE 15.0 mph - N/A   Mostly Cloudy
1:51 AM 72.0 °F - 66.9 °F 84% 29.67 in 10.0 mi South 13.8 mph - N/A   Mostly Cloudy
2:51 AM 73.0 °F - 66.9 °F 81% 29.67 in 10.0 mi South 17.3 mph - N/A   Mostly Cloudy
3:10 AM 71.6 °F - 66.2 °F 83% 29.65 in 10.0 mi South 17.3 mph - N/A   Partly Cloudy
3:51 AM 71.1 °F - 66.0 °F 84% 29.63 in 10.0 mi South 17.3 mph - N/A   Partly Cloudy
4:51 AM 71.1 °F - 66.0 °F 84% 29.62 in 10.0 mi South 15.0 mph - N/A   Partly Cloudy
5:51 AM 70.0 °F - 66.0 °F 87% 29.61 in 10.0 mi South 13.8 mph - N/A   Partly Cloudy
6:51 AM 69.1 °F - 64.9 °F 87% 29.62 in 10.0 mi South 12.7 mph - N/A   Partly Cloudy
7:51 AM 69.1 °F - 64.9 °F 87% 29.64 in 9.0 mi SSW 11.5 mph - N/A   Scattered Clouds
8:21 AM 69.8 °F - 66.2 °F 88% 29.65 in 10.0 mi SSW 12.7 mph - N/A   Mostly Cloudy
8:49 AM 71.6 °F - 66.2 °F 83% 29.65 in 10.0 mi SSW 16.1 mph 20.7 mph N/A   Partly Cloudy
8:51 AM 72.0 °F - 66.0 °F 81% 29.65 in 10.0 mi SSW 16.1 mph 20.7 mph N/A   Partly Cloudy
9:51 AM 75.9 °F - 64.9 °F 69% 29.69 in 10.0 mi SW 25.3 mph 31.1 mph N/A   Partly Cloudy
10:51 AM 80.1 °F - 59.0 °F 48% 29.74 in 10.0 mi WNW 31.1 mph 39.1 mph N/A   Scattered Clouds
11:51 AM 80.1 °F - 46.0 °F 30% 29.74 in 10.0 mi NNW 26.5 mph 34.5 mph N/A   Partly Cloudy
12:51 PM 82.0 °F - 32.0 °F 16% 29.73 in 10.0 mi NW 31.1 mph 42.6 mph N/A   Clear
1:51 PM 80.6 °F - 24.8 °F 13% 29.73 in 10.0 mi NNW 31.1 mph 43.7 mph N/A   Clear
2:51 PM 81.0 °F - 19.9 °F 10% 29.74 in 10.0 mi NW 29.9 mph 38.0 mph N/A   Clear
3:51 PM 80.1 °F - 19.0 °F 10% 29.75 in 10.0 mi NW 25.3 mph 35.7 mph N/A   Clear
4:51 PM 77.0 °F - 19.9 °F 12% 29.78 in 10.0 mi NNW 24.2 mph 35.7 mph N/A   Clear
5:51 PM 72.0 °F - 23.0 °F 16% 29.82 in 10.0 mi NNW 25.3 mph 35.7 mph N/A   Clear
6:51 PM 66.9 °F - 23.0 °F 19% 29.87 in 10.0 mi NNW 18.4 mph 33.4 mph N/A   Clear
7:51 PM 60.1 °F - 28.0 °F 30% 29.94 in 10.0 mi North 28.8 mph 42.6 mph N/A   Clear
8:51 PM 51.1 °F - 24.1 °F 35% 30.01 in 10.0 mi North 24.2 mph 31.1 mph N/A   Clear
9:51 PM 48.9 °F - 24.1 °F 38% 30.06 in 10.0 mi North 21.9 mph 27.6 mph N/A   Clear
10:51 PM 46.0 °F 38.5 °F 24.1 °F 42% 30.12 in 10.0 mi North 19.6 mph - N/A   Clear
11:51 PM 43.0 °F 34.5 °F 21.9 °F 43% 30.15 in 10.0 mi NNW 19.6 mph 26.5 mph N/A   Clear